GW5357 Weather Reports


Display with metric or nautical units.
time (UTC)temp
F
wind
direction
speed
MPH
gust
MPH
rain 1hr
in
rain 24hr
in
rain mn
in
humidity
%
barometer
mb
20260506100005 53 140 3.0 10.0 0.00 0.00 0.00 85 1016.6
20260506095500 53 117 5.0 11.0 0.00 0.00 0.00 85 1016.6
20260506095004 53 130 4.0 11.0 0.00 0.00 0.00 85 1016.5
20260506094504 53 135 4.0 9.0 0.00 0.00 0.00 85 1016.5
20260506094004 53 216 3.0 9.0 0.00 0.00 0.00 85 1016.5
20260506093504 53 131 3.0 10.0 0.00 0.00 0.00 85 1016.5
20260506093005 53 114 3.0 10.0 0.00 0.00 0.00 85 1016.4
20260506092501 53 163 3.0 8.0 0.00 0.00 0.00 85 1016.4
20260506092005 53 135 2.0 8.0 0.00 0.00 0.00 85 1016.3
20260506091504 53 126 3.0 7.0 0.00 0.00 0.00 85 1016.3
20260506091004 53 173 3.0 9.0 0.00 0.00 0.00 85 1016.3
20260506090503 53 157 4.0 9.0 0.00 0.00 0.00 85 1016.3
20260506090006 53 178 2.0 9.0 0.00 0.00 0.00 85 1016.3
20260506085505 53 197 4.0 9.0 0.00 0.00 0.00 84 1016.2
20260506085005 53 152 4.0 9.0 0.00 0.00 0.00 84 1016.2
20260506084506 53 193 2.0 9.0 0.00 0.00 0.00 84 1016.2
20260506084005 54 203 3.0 9.0 0.00 0.00 0.00 84 1016.2
20260506083504 54 110 3.0 12.0 0.00 0.00 0.00 84 1016.2
20260506083006 54 161 5.0 12.0 0.00 0.00 0.00 84 1016.1
20260506082505 54 117 3.0 11.0 0.00 0.00 0.00 84 1016.1
20260506082006 54 128 5.0 11.0 0.00 0.00 0.00 84 1016.1
20260506081506 54 127 3.0 9.0 0.00 0.00 0.00 84 1016.0
20260506081006 54 143 3.0 7.0 0.00 0.00 0.00 84 1016.0
20260506080504 54 161 4.0 7.0 0.00 0.00 0.00 84 1016.0
20260506072506 55 223 2.0 8.0 0.00 0.00 0.00 83 1015.7
20260506072005 55 220 4.0 9.0 0.00 0.00 0.00 83 1015.7
20260506071005 55 124 4.0 8.0 0.00 0.00 0.00 82 1015.7
20260506070505 55 124 4.0 8.0 0.00 0.00 0.00 82 1015.6
20260506061506 56 140 3.0 8.0 0.00 0.00 0.00 81 1015.5
20260506060505 56 100 4.0 12.0 0.00 0.00 0.00 81 1015.5
20260506050506 57 142 4.0 9.0 0.00 0.00 0.00 79 1015.3
20260506044507 57 137 3.0 6.0 0.00 0.00 0.00 79 1015.2
20260506044009 57 178 2.0 7.0 0.00 0.00 0.00 78 1015.0
20260506043505 57 140 2.0 5.0 0.00 0.00 0.00 79 1015.0
20260506043007 57 122 2.0 9.0 0.00 0.00 0.00 79 1014.9
20260506042505 57 145 154.0 655.0 3.31 0.00 0.00 78
20260506041506 58 164 3.0 12.0 0.00 0.00 0.00 78 1014.8
20260506041006 58 119 5.0 12.0 0.00 0.00 0.00 78 1014.8
20260506040505 58 167 3.0 7.0 0.00 0.00 0.00 78 1014.7
20260506035007 58 114 3.0 8.0 0.00 0.00 0.00 77 1014.5
20260506034506 58 142 3.0 8.0 0.00 0.00 0.00 78 1014.4
20260506034005 58 161 4.0 7.0 0.00 0.00 0.00 78 1014.5
20260506033505 58 145 3.0 8.0 0.00 0.00 0.00 78 1014.5
20260506033008 58 234 4.0 8.0 0.00 0.00 0.00 78 1014.4
20260506032506 58 165 4.0 9.0 0.00 0.00 0.00 78 1014.3
20260506032007 58 130 4.0 12.0 0.00 0.00 0.00 78 1014.3
20260506031506 58 125 4.0 12.0 0.00 0.00 0.00 78 1014.2
20260506031006 58 56 4.0 13.0 0.00 0.00 0.00 78 1014.2
20260506030505 58 143 5.0 13.0 0.00 0.00 0.00 78 1014.2
20260506030006 58 128 4.0 10.0 0.00 0.00 0.00 79 1014.1
20260506025004 58 140 4.0 13.0 0.00 0.00 0.00 78 1014.1
20260506024505 58 148 4.0 9.0 0.00 0.00 0.00 78 1014.2
20260506023504 58 124 4.0 9.0 0.00 0.00 0.00 78 1014.1
20260506023005 58 137 4.0 9.0 0.00 0.00 0.00 78 1014.2
20260506022005 59 223 3.0 10.0 0.00 0.00 0.00 78 1014.2
20260506021506 59 139 4.0 8.0 0.00 0.00 0.00 78 1014.2
20260506021005 59 198 3.0 8.0 0.00 0.00 0.00 78 1014.2
20260506020505 59 115 3.0 10.0 0.00 0.00 0.00 78 1014.3
20260506020006 59 120 3.0 10.0 0.00 0.00 0.00 78 1014.3
20260506015005 60 119 3.0 10.0 0.00 0.00 0.00 78 1014.2
20260506014507 60 167 4.0 10.0 0.00 0.00 0.00 77 1014.3
20260506014006 60 110 4.0 10.0 0.00 0.00 0.00 76 1014.2
20260506013504 60 207 4.0 10.0 0.00 0.00 0.00 75 1014.3
20260506013006 61 126 4.0 9.0 0.00 0.00 0.00 75 1014.3
20260506012505 61 186 3.0 8.0 0.00 0.00 0.00 75 1014.2
20260506012006 61 230 3.0 8.0 0.00 0.00 0.00 75 1014.3
20260506011506 62 105 2.0 9.0 0.00 0.00 0.00 75 1014.2
20260506011006 62 135 4.0 10.0 0.00 0.00 0.00 74 1014.2
20260506010506 62 258 3.0 10.0 0.00 0.00 0.00 74 1014.3
20260506005005 62 110 3.0 11.0 0.00 0.00 0.00 73 1014.3
20260506004506 63 146 4.0 9.0 0.00 0.00 0.00 72 1014.3
20260506004005 63 149 3.0 6.0 0.00 0.00 0.00 72 1014.2
20260506003506 63 336 3.0 7.0 0.00 0.00 0.00 74 1014.2
20260506003007 62 223 3.0 7.0 0.00 0.00 0.00 73 1014.3
20260506002505 62 72 3.0 15.0 0.00 0.00 0.00 72 1014.4
20260506002006 62 171 3.0 15.0 0.00 0.00 0.00 73 1014.4
20260506001004 62 135 3.0 9.0 0.00 0.00 0.00 74 1014.5
20260506000505 62 215 3.0 9.0 0.00 0.00 0.00 75 1014.6
20260505235005 61 139 4.0 11.0 0.00 0.00 0.00 76 1014.7
20260505234505 61 127 6.0 11.0 0.00 0.00 0.00 75 1014.8
20260505234005 62 238 5.0 10.0 0.00 0.00 0.00 75 1014.7
20260505233006 62 178 4.0 8.0 0.00 0.00 0.00 75 1014.9
20260505232505 62 223 4.0 11.0 0.00 0.00 0.00 74 1015.0
20260505232006 62 333 3.0 11.0 0.00 0.00 0.00 74 1015.0
20260505231005 62 216 2.0 10.0 0.00 0.00 0.00 74 1015.0
20260505230505 62 296 4.0 11.0 0.00 0.00 0.00 76 1015.1
20260505230006 62 221 3.0 11.0 0.00 0.00 0.00 75 1015.2
20260505225505 61 303 4.0 12.0 0.00 0.00 0.00 77 1015.1
20260505225006 61 274 5.0 14.0 0.00 0.00 0.00 75 1015.3
20260505224506 61 20 5.0 14.0 0.00 0.00 0.00 76 1015.3
20260505224005 61 206 3.0 12.0 0.00 0.00 0.00 76 1015.4
20260505223505 61 150 4.0 9.0 0.00 0.00 0.00 75 1015.5
20260505223007 62 124 4.0 9.0 0.00 0.00 0.00 77 1015.5
20260505222507 61 289 4.0 14.0 0.00 0.00 0.00 76 1015.6
20260505222005 61 277 3.0 14.0 0.00 0.00 0.00 76 1015.5
20260505221506 61 135 3.0 23.0 0.00 0.00 0.00 76 1015.6
20260505220505 61 46 4.0 12.0 0.00 0.00 0.00 76 1015.6
20260505220007 61 245 5.0 12.0 0.00 0.00 0.00 76 1015.6
20260505215506 61 276 4.0 11.0 0.00 0.00 0.00 77 1015.6
20260505215005 61 174 4.0 11.0 0.00 0.00 0.00 75 1015.7
20260505214506 61 28 3.0 11.0 0.00 0.00 0.00 77 1015.6
20260505214006 61 287 4.0 12.0 0.00 0.00 0.00 76 1015.6
20260505213006 61 215 4.0 10.0 0.00 0.00 0.00 76 1015.7
20260505212506 61 199 3.0 11.0 0.00 0.00 0.00 77 1015.7
20260505212006 61 238 5.0 10.0 0.00 0.00 0.00 76 1015.7
20260505211505 61 186 5.0 11.0 0.00 0.00 0.00 77 1015.7
20260505211008 60 299 3.0 11.0 0.00 0.00 0.00 78 1015.7
20260505210507 60 323 4.0 12.0 0.00 0.00 0.00 77 1015.7
20260505210008 61 285 4.0 12.0 0.00 0.00 0.00 77 1015.7
20260505204506 60 247 3.0 11.0 0.00 0.00 0.00 78 1015.8
20260505204005 61 310 5.0 10.0 0.00 0.00 0.00 77 1015.8
20260505203505 61 288 4.0 9.0 0.00 0.00 0.00 77 1015.9
20260505202506 60 248 5.0 12.0 0.00 0.00 0.00 77 1015.8
20260505202005 60 344 3.0 11.0 0.00 0.00 0.00 77 1015.9
20260505201505 60 194 5.0 11.0 0.00 0.00 0.00 78 1015.8
20260505201005 61 252 4.0 10.0 0.00 0.00 0.00 77 1015.8
20260505200005 61 197 3.0 13.0 0.00 0.00 0.00 78 1015.8
20260505195505 60 89 3.0 10.0 0.00 0.00 0.00 77 1015.8
20260505194505 60 152 3.0 16.0 0.00 0.00 0.00 78 1015.8
20260505194004 60 203 5.0 16.0 0.00 0.00 0.00 79 1015.9
20260505193505 60 281 3.0 13.0 0.00 0.00 0.00 79 1015.8
20260505193005 60 281 3.0 13.0 0.00 0.00 0.00 78 1015.9
20260505192505 60 319 3.0 11.0 0.00 0.00 0.00 78 1015.8
20260505192005 60 135 3.0 10.0 0.00 0.00 0.00 79 1015.8
20260505191507 60 20 4.0 10.0 0.00 0.00 0.00 79 1015.8
20260505191006 60 228 4.0 9.0 0.00 0.00 0.00 79 1015.8
20260505190504 60 250 3.0 9.0 0.00 0.00 0.00 80 1015.8
20260505190006 60 281 3.0 9.0 0.00 0.00 0.00 80 1015.8
20260505185005 59 175 3.0 11.0 0.00 0.00 0.00 80 1015.7
20260505184005 59 193 3.0 9.0 0.00 0.00 0.00 79 1015.9
20260505183506 59 142 3.0 7.0 0.00 0.00 0.00 81 1015.9
20260505183006 59 89 2.0 9.0 0.00 0.00 0.00 80 1015.8
20260505182505 59 238 3.0 9.0 0.00 0.00 0.00 81 1015.8
20260505182005 59 145 3.0 8.0 0.00 0.00 0.00 81 1015.8
20260505181006 59 89 3.0 9.0 0.00 0.00 0.00 81 1015.7
20260505180505 59 142 2.0 11.0 0.00 0.00 0.00 82 1015.6
20260505180006 59 303 3.0 10.0 0.00 0.00 0.00 81 1015.6
20260505175505 58 131 2.0 8.0 0.00 0.00 0.00 82 1015.6
20260505175005 58 124 2.0 12.0 0.00 0.00 0.00 83 1015.7
20260505174506 58 324 3.0 10.0 0.00 0.00 0.00 84 1015.6
20260505174007 57 167 4.0 10.0 0.00 0.00 0.00 84 1015.6
20260505173505 57 206 3.0 9.0 0.00 0.00 0.00 84 1015.6
20260505173006 57 236 3.0 9.0 0.00 0.00 0.00 84 1015.6
20260505171506 56 223 2.0 9.0 0.00 0.00 0.00 86 1015.6
20260505171005 56 248 3.0 9.0 0.00 0.00 0.00 86 1015.6
20260505170504 56 223 3.0 9.0 0.00 0.00 0.00 86 1015.6
20260505170006 55 46 2.0 8.0 0.00 0.00 0.00 86 1015.6
20260505165505 55 269 3.0 9.0 0.00 0.00 0.00 86 1015.5
20260505165006 55 135 3.0 9.0 0.00 0.00 0.00 87 1015.6
20260505164506 55 209 2.0 7.0 0.00 0.00 0.00 86 1015.5
20260505164006 55 89 2.0 7.0 0.00 0.00 0.00 86 1015.5
20260505163504 55 331 3.0 7.0 0.00 0.00 0.00 86 1015.5
20260505163007 55 201 2.0 6.0 0.00 0.00 0.00 86 1015.5
20260505162504 56 218 2.0 9.0 0.00 0.00 0.00 85 1015.5
20260505162006 56 72 2.0 10.0 0.00 0.00 0.00 85 1015.5
20260505161505 56 193 4.0 11.0 0.00 0.00 0.00 85 1015.4
20260505161005 56 117 5.0 11.0 0.00 0.00 0.00 85 1015.4
20260505153006 55 191 3.0 12.0 0.00 0.00 0.00 86 1015.2
20260505152506 55 331 3.0 12.0 0.00 0.00 0.00 86 1015.2
20260505152006 55 223 3.0 9.0 0.00 0.00 0.00 86 1015.1
20260505151505 55 135 4.0 8.0 0.00 0.00 0.00 86 1015.1
20260505150505 55 136 5.0 14.0 0.00 0.00 0.00 87 1015.0
20260505125002 54 107 4.0 11.0 0.00 0.00 0.00 87 1013.6
20260505124505 54 133 3.0 11.0 0.00 0.00 0.00 86 1013.6
20260505124003 54 161 4.0 10.0 0.00 0.00 0.00 86 1013.5
20260505123503 54 145 3.0 11.0 0.00 0.00 0.00 86 1013.5
20260505123007 54 254 5.0 11.0 0.00 0.00 0.00 86 1013.3
20260505122502 54 124 3.0 9.0 0.00 0.00 0.00 86 1013.3
20260505122005 54 173 3.0 12.0 0.00 0.00 0.00 85 1013.2
20260505121506 54 72 3.0 12.0 0.00 0.00 0.00 85 1013.2
20260505121005 54 178 5.0 12.0 0.00 0.00 0.00 85 1013.1
20260505120504 55 133 5.0 10.0 0.00 0.00 0.00 84 1013.1
20260505120007 55 314 2.0 9.0 0.00 0.00 0.00 84 1013.0
20260505115505 55 217 4.0 12.0 0.00 0.00 0.00 83 1013.0
20260505115004 55 149 4.0 12.0 0.00 0.00 0.00 83 1013.0
20260505114505 55 218 2.0 7.0 0.00 0.00 0.00 83 1012.9
20260505113505 55 148 2.0 12.0 0.00 0.00 0.00 82 1012.8
20260505112505 55 148 4.0 8.0 0.00 0.00 0.00 82 1012.7
20260505112005 55 135 3.0 8.0 0.00 0.00 0.00 82 1012.6
20260505111506 55 157 3.0 8.0 0.00 0.00 0.00 82 1012.5
20260505111005 55 79 3.0 7.0 0.00 0.00 0.00 82 1012.5
20260505110505 55 135 3.0 7.0 0.00 0.00 0.00 82 1012.4
20260505102005 56 125 2.0 8.0 0.00 0.00 0.00 81 1012.0
20260505101504 56 28 2.0 9.0 0.00 0.00 0.00 81 1012.0
20260505101005 56 221 4.0 9.0 0.00 0.00 0.00 81 1011.9
20260505100504 56 223 2.0 6.0 0.00 0.00 0.00 80 1011.9